Location: Honolulu
(21.3069°N, 157.8583°W)
Time: 06:04:07
(UTC-10:00)

Tiangong - Pass Details

Date: 16 May 2026
Orbit: 380 x 392 km, 41.5° (Epoch: 11 June)

Event Time Altitude Azimuth Distance (km) Brightness Sun altitude
Rises 05:11:13 0° 311° (NW) 2,257 1.5 -9.7°
Reaches altitude 10° 05:13:18 10° 313° (NW) 1,399 0.5 -9.3°
Maximum altitude 05:16:27 69° 38° (NE) 409 -1.8 -8.6°
Drops below altitude 10° 05:19:34 10° 122° (ESE) 1,387 1.2 -8.0°
Sets 05:21:37 0° 125° (SE) 2,235 2.2 -7.5°
